Regional Weather Roundup
Issued by NWS

Home | Current Version | Previous Version | Graphics & Text | Print | Product List | Glossary On
Versions: 1 2 3 4 5 6 7 8 9 10 11 12 13 14 15 16 17 18 19 20 21 22 23 24 25 26 27 28 29 30 31 32 33 34 35 36 37 38 39 40 41 42 43 44 45 46 47 48 49 50
000
ASUS43 KMKX 271811
RWRWI

WISCONSIN REGIONAL WEATHER ROUNDUP
NATIONAL WEATHER SERVICE MILWAUKEE/SULLIVAN WI
100 PM CDT TUE SEP 27 2016

NOTE: "FAIR" INDICATES FEW OR NO CLOUDS BELOW 12,000 FEET WITH NO
SIGNIFICANT WEATHER AND/OR OBSTRUCTIONS TO VISIBILITY.

WIZ001-002-006>008-014>016-023>028-271900-
NORTHWEST WISCONSIN

CITY           SKY/WX    TMP DP  RH WIND       PRES   REMARKS
SUPERIOR ARPT  CLOUDY    51  46  82 NW12      29.71S
6HR MIN TEMP:  50; 6HR MAX TEMP:  53;

ASHLAND        CLOUDY    52  48  86 W10G18    29.67S
6HR MIN TEMP:  49; 6HR MAX TEMP:  52; 6HR PCP:  0.07;

HAYWARD        LGT RAIN  50  46  86 VRB5      29.71R
6HR MIN TEMP:  49; 6HR MAX TEMP:  52; 6HR PCP:  0.02;

SIREN          DRIZZLE   50  47  91 NW9       29.75S
6HR MIN TEMP:  48; 6HR MAX TEMP:  52; 6HR PCP:  0.02;

CUMBERLAND     LGT RAIN  48  45  87 W17G28    29.74S
RICE LAKE      RAIN      51  44  78 W12G20    29.75S
6HR MIN TEMP:  49; 6HR MAX TEMP:  53;

CHETEK         NOT AVBL
LADYSMITH      RAIN      51  47  86 W10       29.72S
6HR MIN TEMP:  49; 6HR MAX TEMP:  52; 6HR PCP:  0.01;

EAU CLAIRE     CLOUDY    54  44  69 W13G23    29.74S
6HR MIN TEMP:  50; 6HR MAX TEMP:  56;

MENOMONIE      LGT RAIN  55  44  66 W14       29.76F
6HR MIN TEMP:  49; 6HR MAX TEMP:  55;

NEW RICHMOND   CLOUDY    54  42  63 W17       29.77F
6HR MIN TEMP:  47; 6HR MAX TEMP:  56;

OSCEOLA        LGT RAIN  54  43  68 NW12G21   29.80S
6HR MIN TEMP:  48; 6HR MAX TEMP:  55;

$$

WIZ003>005-009-010-017-018-271900-
NORTH CENTRAL WISCONSIN

CITY           SKY/WX    TMP DP  RH WIND       PRES   REMARKS
MANITOWISH WTR NOT AVBL
ARBOR VITAE    CLOUDY    52  48  87 NW10G18   29.63S
6HR MIN TEMP:  49; 6HR MAX TEMP:  52;

WOODRUFF       CLOUDY    52  48  87 NW10G18   29.63S
6HR MIN TEMP:  49; 6HR MAX TEMP:  52;

RHINELANDER    LGT RAIN  50  48  93 W17       29.64S
6HR MIN TEMP:  48; 6HR MAX TEMP:  51; 6HR PCP:  0.03;

EAGLE RIVER    RAIN      49  47  95 NW12      29.61S
6HR MIN TEMP:  47; 6HR MAX TEMP:  50;

LAND O LAKES   LGT RAIN  50  46  86 NW12G21   29.62S
6HR MIN TEMP:  47; 6HR MAX TEMP:  51; 6HR PCP:  0.01;

PHILLIPS       DRIZZLE   49  47  95 W8        29.66F
6HR MIN TEMP:  46; 6HR MAX TEMP:  49; 6HR PCP:  0.07;

TOMAHAWK       LGT RAIN  49  46  90 W15G21    29.66F
6HR MIN TEMP:  46; 6HR MAX TEMP:  50;

MEDFORD        CLOUDY    49  48  93 W10G17    29.69S
6HR MIN TEMP:  46; 6HR MAX TEMP:  51; 6HR PCP:  0.02;

MERRILL        LGT RAIN  49  48  97 W12G17    29.67F
6HR MIN TEMP:  47; 6HR MAX TEMP:  53; 6HR PCP:  0.01;

$$

WIZ029-030-035-036-043>047-271900-
CENTRAL WISCONSIN

CITY           SKY/WX    TMP DP  RH WIND       PRES   REMARKS
WAUSAU         LGT RAIN  50  45  83 W17G24    29.67S
6HR MIN TEMP:  49; 6HR MAX TEMP:  53; 6HR PCP:  0.01;

MOSINEE        NOT AVBL
MARSHFIELD     CLOUDY    53  43  68 W15G23    29.70F
6HR MIN TEMP:  51; 6HR MAX TEMP:  55; 6HR PCP: TRACE;

STEVENS POINT  CLOUDY    52  42  69 W13G20    29.70S
6HR MIN TEMP:  49; 6HR MAX TEMP:  53;

WAUPACA        CLOUDY    59  45  60 W10G21    29.69F
6HR MIN TEMP:  54; 6HR MAX TEMP:  59;

WAUTOMA        CLOUDY    56  44  64 W16G22    29.72S
6HR MIN TEMP:  50; 6HR MAX TEMP:  57;

WISC RAPIDS    CLOUDY    54  45  71 W8        29.73S
6HR MIN TEMP:  50; 6HR MAX TEMP:  57;

CAMP DOUGLAS   CLOUDY    55  45  67 W17       29.74F
$$

WIZ011>013-019>022-031-037>040-048>050-271900-
NORTHEAST WISCONSIN

CITY           SKY/WX    TMP DP  RH WIND       PRES   REMARKS
ANTIGO         DRIZZLE   49  48  94 W14G23    29.65S
6HR MIN TEMP:  47; 6HR MAX TEMP:  50; 6HR PCP:  0.05;

SHAWANO        CLOUDY    56  49  74 W13G18    29.66R
6HR MIN TEMP:  54; 6HR MAX TEMP:  59;

OCONTO         NOT AVBL
STURGEON BAY   LGT RAIN  55  47  74 W14G22    29.62R
6HR MIN TEMP:  52; 6HR MAX TEMP:  57;

GREEN BAY      CLOUDY    59  47  64 W16G28    29.65F
6HR MIN TEMP:  52; 6HR MAX TEMP:  60;

MANITOWOC      CLOUDY    57  44  62 MISG      29.68R
6HR MIN TEMP:  53; 6HR MAX TEMP:  58;

APPLETON       DRIZZLE   55  43  62 W13G21    29.67S
CLINTONVILLE   NOT AVBL
OSHKOSH        CLOUDY    56  43  61 W12G22    29.69F
6HR MIN TEMP:  50; 6HR MAX TEMP:  57;

$$

WIZ032>034-041-042-053>061-271900-
SOUTHWEST WISCONSIN

CITY           SKY/WX    TMP DP  RH WIND       PRES   REMARKS
LA CROSSE      PTSUNNY   66  44  45 NW21      29.76F
6HR MIN TEMP:  52; 6HR MAX TEMP:  66;

SPARTA         CLOUDY    57  44  61 W9        29.76F
6HR MIN TEMP:  47; 6HR MAX TEMP:  57;

VIROQUA        MOSUNNY   60  40  48 W13G24    29.77F
6HR MIN TEMP:  47; 6HR MAX TEMP:  61;

BOSCOBEL       SUNNY     64  40  41 W14G24    29.78F
6HR MIN TEMP:  49; 6HR MAX TEMP:  65;

PRAIRIE DU CHI SUNNY     66  34  30 W17G25    29.78F
6HR MIN TEMP:  49; 6HR MAX TEMP:  66;

PLATTEVILLE    SUNNY     65  40  39 W20G30    29.80F
6HR MIN TEMP:  43; 6HR MAX TEMP:  65;

$$

WIZ056-057-062-063-064-067-068-271900-
SOUTH CENTRAL WISCONSIN

CITY           SKY/WX    TMP DP  RH WIND       PRES   REMARKS
REEDSBURG      NOT AVBL
BARABOO/DELLS  CLOUDY    57  40  54 NW12G18   29.75F
LONE ROCK      PTSUNNY   62  41  46 W21G31    29.77F
6HR MIN TEMP:  47; 6HR MAX TEMP:  63;

MINERAL POINT  SUNNY     64  37  36 W21G26    29.78F
MADISON        PTSUNNY   58  41  53 NW9G20    29.75F
6HR MIN TEMP:  51; 6HR MAX TEMP:  60;

MIDDLETON      NOT AVBL
WATERTOWN      CLOUDY    57  43  59 W15G21    29.74S
6HR MIN TEMP:  48; 6HR MAX TEMP:  57;

MONROE         SUNNY     63  37  39 W26G33    29.77F
JANESVILLE     MOSUNNY   64  39  39 W18G26    29.75F
$$

WIZ051-052-058>065-066-070>072-271900-
SOUTHEAST WISCONSIN

CITY           SKY/WX    TMP DP  RH WIND       PRES   REMARKS
MILWAUKEE      CLOUDY    62  41  46 W16G25    29.74S
6HR MIN TEMP:  53; 6HR MAX TEMP:  63;

WAUKESHA       PTSUNNY   55  43  62 W17G25    29.75S
MILWAUKEE/TIMM CLOUDY    57  39  51 W15G21    29.74S
RACINE         MOSUNNY   61  40  45 W17G29    29.75S
6HR MIN TEMP:  50; 6HR MAX TEMP:  63;

BURLINGTON     SUNNY     62  39  43 W18G25    29.74F
6HR MIN TEMP:  48; 6HR MAX TEMP:  62;

KENOSHA        SUNNY     65  41  41 W21G30    29.73F
6HR MIN TEMP:  48; 6HR MAX TEMP:  65;

FOND DU LAC    CLOUDY    57  43  59 W21G26    29.71S
6HR MIN TEMP:  49; 6HR MAX TEMP:  57;

SHEBOYGAN      CLOUDY    58  44  60 W17G23    29.70S
6HR MIN TEMP:  52; 6HR MAX TEMP:  58;

WEST BEND      CLOUDY    55  41  58 W16G22    29.72S
JUNEAU         CLOUDY    56  42  61 W14G22    29.74F
6HR MIN TEMP:  46; 6HR MAX TEMP:  56;

$$

LSZ147-162-271900-
LAKE SUPERIOR

STATION/POSITION TIME  TEMP    WIND        PRES    WAVE
                       AIR SEA DIR/SP/G            HT/PER
                 (UTC) (F)     (DEG/KT/KT) (MB)    (FT/S)
W MID LAKE BUOY  1750   51 47  290/ 14/ 16 1001.9R   3/ 5
DEVILS ISLAND    1800   51     290/ 14/ 17 1004.1R
SAXON HARBOR     1700   52     270/  9/ 14 1004.1S
$$

LMZ867-665-643>646-271900-
LAKE MICHIGAN

STATION/POSITION TIME  TEMP    WIND        PRES    WAVE
                       AIR SEA DIR/SP/G            HT/PER
                 (UTC) (F)     (DEG/KT/KT) (MB)    (FT/S)
CHAMBERS ISLAND  1700   56     230/  3/ 12 1002.0R
N MID LAKE BUOY  1750   54 66  260/ 16/ 19 1001.1R   4/ 6
NORTHPORT PIER   1700   54     290/  9/ 17 1002.0S
SISTER BAY       1708   56     280/ 16/ 18   N/A
KEWAUNEE LAKESHO 1700   57     260/  9/ 18 1003.3F
SHEBOYGAN LAKESH 1800   57     270/ 19/ 22 1005.2F
PORT WASHINGTON  1740   59     270/ 12/ 19 1007.1S
ATWATER BUOY     1800   57 5C1F1C2F2C3F3C4F4C5F5C6F6C7F7C8M1C9M2Ca!



USA.gov is the U.S. government's official web portal to all federal, state and local government web resources and services.